sat.trackr.live / text

‹ back to catalog

STARLINK-31519

NORAD 59546 · 2024-074N

PAYLOAD ACTIVE UNKNOWN

§ Identity

Operator
Country
US
Launch date
2024-04-18
Launch site
AFETR
Launch vehicle
Mass (kg)
RCS (m²)

Purposes: comms

External: N2YO · Heavens-Above · Gunter

§ Orbital elements

Epoch: 2026-09-21T11:45:49.169952Z

Period
94.27 min
Inclination
43.0017°
Eccentricity
0.0001097
Mean motion
15.27578076 rev/d
Perigee alt
482.3 km
Apogee alt
483.8 km
Semi-major
6,861.2 km
B*
1.6554e-5
RAAN
317.3897°
Arg perigee
268.8805°
Mean anomaly
91.1921°
Rev number
13,596

§ Raw data

STARLINK-315191 59546U 24074N   26264.49015243  .00000194  00000+0  16554-4 0  99922 59546  43.0017 317.3897 0001097 268.8805  91.1921 15.27578076135963

JSON: /api/v1/satellites/59546 · /tle

For live sub-satellite position, see the globe view (requires WebGL).

§ Visibility from observer

Set your observer location to see the next 7 days of passes ≥ 10°. The values pass through the URL so the page stays shareable.

No JS? Fill the form by hand. The geolocation button needs JavaScript.